GEO-KOMPSAT-2A

Last updated on Fri Dec 19 2025 00:02:25 GMT+0000 (Coordinated Universal Time)

1 43823U 18100A 25352.57934809 -.00000319 00000+0 00000+0 0 9994 2 43823 0.0447 154.2273 0000568 297.0324 333.0163 1.00270279 25810
UTC large
Height (km)
Speed (km/s)
/
Latitude / Longitude
Inclination (degrees)
Orbital Period (minutes)
Azimuth
Elevation
Range (km)
Doppler Factor

Next 0 passes for location: London (51.5072 / 0.1276)

Sorry there are no passes over London.